CW8756 Weather Reports


time (UTC)temp
F
wind
direction
speed
knots
gust
knots
rain 1hr
in
rain 24hr
in
rain mn
in
humidity
%
barometer
mb
20260505041531 77 123 0.0 0.0 0.00 0.00 0.00 100 1014.7
20260505040025 78 122 0.0 0.0 0.00 0.00 0.00 100 1014.7
20260505034522 79 88 0.0 0.0 0.00 0.00 0.00 100 1014.8
20260505033022 79 88 0.0 0.0 0.00 0.00 0.00 100 1014.9
20260505031520 79 88 0.0 0.0 0.00 0.00 0.00 100 1014.9
20260505030018 79 88 0.0 0.0 0.00 0.00 0.00 100 1015.1
20260505024534 79 88 0.0 0.0 0.00 0.00 0.00 100 1015.0
20260505023017 79 88 0.0 0.0 0.00 0.00 0.00 100 1014.8
20260505021518 79 88 0.0 0.0 0.00 0.00 0.00 100 1014.8
20260505020015 79 88 0.0 0.0 0.00 0.00 0.00 100 1014.7
20260505014513 79 88 0.0 0.0 0.00 0.00 0.00 100 1014.6
20260505013018 79 88 0.0 0.0 0.00 0.00 0.00 100 1014.5
20260505011508 79 88 0.0 0.0 0.00 0.00 0.00 100 1014.4
20260505010008 79 88 0.0 0.0 0.00 0.00 0.00 100 1014.3
20260505004505 79 88 0.0 0.0 0.00 0.00 0.00 100 1014.3
20260505003006 80 88 0.0 0.0 0.00 0.00 0.00 100 1014.2
20260505001505 80 88 0.0 0.0 0.00 0.00 0.00 100 1014.0
20260505000004 80 88 0.0 0.0 0.00 0.00 0.00 100 1014.0
20260504234503 80 88 0.0 0.0 0.00 0.00 0.00 100 1013.9
20260504233040 80 89 0.0 0.0 0.00 0.00 0.00 100 1013.7
20260504231555 81 89 0.0 0.0 0.00 0.00 0.00 100 1013.6
20260504230033 81 43 0.0 0.0 0.00 0.00 0.00 100 1013.6
20260504224537 81 20 0.0 0.0 0.00 0.00 0.00 100 1013.5
20260504223031 81 80 0.0 0.0 0.00 0.00 0.00 100 1013.4
20260504221531 81 78 0.0 0.0 0.00 0.00 0.00 100 1013.3
20260504220034 82 344 0.0 0.0 0.00 0.00 0.00 100 1013.1
20260504214530 82 24 0.0 0.0 0.00 0.00 0.00 100 1012.8
20260504213028 82 46 0.0 0.0 0.00 0.00 0.00 100 1012.7
20260504211529 82 16 0.0 0.0 0.00 0.00 0.00 100 1012.7
20260504210034 82 66 0.0 0.0 0.00 0.00 0.00 100 1012.7
20260504204525 82 48 0.0 0.0 0.00 0.00 0.00 100 1012.6
20260504203031 83 32 0.0 0.0 0.00 0.00 0.00 100 1012.5
20260504201523 82 83 0.0 0.0 0.00 0.00 0.00 100 1012.6
20260504200025 83 306 0.0 0.0 0.00 0.00 0.00 100 1012.4
20260504194536 84 11 0.0 0.0 0.00 0.00 0.00 100 1012.6
20260504193021 82 60 0.0 0.0 0.00 0.00 0.00 100 1012.8
20260504191519 83 327 0.0 0.0 0.00 0.00 0.00 100 1012.7
20260504190020 84 12 0.0 0.0 0.00 0.00 0.00 100 1012.8
20260504184517 83 360 0.0 0.0 0.00 0.00 0.00 100 1012.9
20260504183017 83 46 0.0 0.0 0.00 0.00 0.00 100 1012.9
20260504181515 83 344 0.0 0.0 0.00 0.00 0.00 100 1013.2
20260504180018 84 264 0.0 0.0 0.00 0.00 0.00 100 1013.1
20260504174613 84 11 0.0 0.0 0.00 0.00 0.00 100 1013.5
20260504173015 84 50 0.0 0.0 0.00 0.00 0.00 100 1013.8
20260504171510 84 32 0.0 0.0 0.00 0.00 0.00 100 1013.9
20260504140105 86 183 0.0 0.0 0.00 0.00 0.00 96 1014.4
20260504081542 0 0.0 0.0 0.00 0.00 0.00 1013.2
20260504050113 76 97 0.0 0.0 0.00 0.00 0.00 100 1014.2